Starlink 5176

operational
NORAD ID: 54053 Int'l Des: 2022-136 Owner: SPXS Country: US Constellation: starlink
LEOCIRCULAR

Über Starlink 5176

Beschreibung wird geladen...

Live-Position

3D-Globus wird geladen...

Nächste Überflüge

Höhenverlauf

Altitude vs Time

uPlot chart will show altitude changes over time

Zweizeiliger Elementsatz

1 54053U 22136C 26034.52701139 -.00001712 00000-0 -89462-4 0 9990
2 54053 53.2185 137.6898 0001493 106.0431 254.0725 15.08847365181683
Epoch: 3. Feb. 2026 • Age: 8 hours

Aktueller Status

Höhe 543.4 km
Geschwindigkeit 7.60 km/s
Subsatellitenpunkt 43.45°N, 94.04°E
Startdatum 20. Okt. 2022
Alter 3.2 years
Typ internet

Technische Details

Klassifizierung Payload
Masse 305.00 kg
Trockenmasse 290.00 kg
Gesamtmasse 305.00 kg
Länge 0.20 m
Durchmesser 2.80 m
Spannweite 9.00 m
Form Box + pan
Hersteller SPXS
Bus-Typ Starlink
Phasenstatus In Orbit
Besitzer/Staat SPXS/US

Große Konstellationen

Loading constellations...